Time,TemperatureF,DewpointF,PressureIn,WindDirection,WindDirectionDegrees,WindSpeedMPH,WindSpeedGustMPH,Humidity,HourlyPrecipIn,Conditions,Clouds,dailyrainin,SoftwareType,DateUTC
2013-08-05 00:00:00,65.1,54.3,28.30,North,3,0.0,1.0,68,0.00,CLR,,0.00,WeatherDisplay:10.37,2013-08-05 04:00:00,
2013-08-05 00:10:00,64.9,54.9,28.30,NNE,27,0.0,2.0,70,0.00,CLR,,0.00,WeatherDisplay:10.37,2013-08-05 04:10:00,
2013-08-05 00:20:00,64.8,54.7,28.30,North,10,0.0,0.0,70,0.00,CLR,,0.00,WeatherDisplay:10.37,2013-08-05 04:20:00,
2013-08-05 00:30:00,64.6,55.3,28.30,North,0,0.0,0.0,72,0.00,CLR,,0.00,WeatherDisplay:10.37,2013-08-05 04:30:00,
2013-08-05 00:40:00,64.2,55.4,28.30,NE,56,1.0,2.0,73,0.00,CLR,,0.00,WeatherDisplay:10.37,2013-08-05 04:40:00,
2013-08-05 00:50:00,64.2,56.1,28.30,ENE,68,0.0,1.0,75,0.00,CLR,,0.00,WeatherDisplay:10.37,2013-08-05 04:50:00,
2013-08-05 01:00:00,64.4,57.0,28.30,NE,50,1.0,2.0,77,0.00,CLR,,0.00,WeatherDisplay:10.37,2013-08-05 05:00:00,
2013-08-05 01:10:00,64.6,56.8,28.30,NE,45,0.0,1.0,76,0.00,CLR,,0.00,WeatherDisplay:10.37,2013-08-05 05:10:00,
2013-08-05 01:20:00,64.4,56.7,28.30,NE,36,1.0,2.0,76,0.00,CLR,,0.00,WeatherDisplay:10.37,2013-08-05 05:20:00,
2013-08-05 01:30:00,64.2,56.1,28.30,NNE,22,0.0,2.0,75,0.00,CLR,,0.00,WeatherDisplay:10.37,2013-08-05 05:30:00,
2013-08-05 01:40:00,64.0,55.2,28.30,NNE,22,0.0,0.0,73,0.00,CLR,,0.00,WeatherDisplay:10.37,2013-08-05 05:40:00,
2013-08-05 01:50:00,63.9,55.4,28.27,NE,34,0.0,1.0,74,0.00,CLR,,0.00,WeatherDisplay:10.37,2013-08-05 05:50:00,
2013-08-05 02:00:00,63.5,55.1,28.27,NE,45,0.0,0.0,74,0.00,CLR,,0.00,WeatherDisplay:10.37,2013-08-05 06:00:00,
2013-08-05 02:10:00,63.3,55.3,28.27,NE,45,0.0,0.0,75,0.00,CLR,,0.00,WeatherDisplay:10.37,2013-08-05 06:10:00,
2013-08-05 02:20:00,63.5,56.5,28.30,NE,43,1.0,2.0,78,0.00,CLR,,0.00,WeatherDisplay:10.37,2013-08-05 06:20:00,
2013-08-05 02:30:00,63.5,56.5,28.30,NE,34,1.0,2.0,78,0.00,CLR,,0.00,WeatherDisplay:10.37,2013-08-05 06:30:00,
2013-08-05 02:40:00,63.5,56.5,28.30,NE,45,1.0,2.0,78,0.00,CLR,,0.00,WeatherDisplay:10.37,2013-08-05 06:40:00,
2013-08-05 02:50:00,63.3,56.3,28.27,NE,43,1.0,2.0,78,0.00,CLR,,0.00,WeatherDisplay:10.37,2013-08-05 06:50:00,
2013-08-05 03:00:00,63.1,56.2,28.27,NE,34,1.0,2.0,78,0.00,CLR,,0.00,WeatherDisplay:10.37,2013-08-05 07:00:00,
2013-08-05 03:10:00,63.0,56.3,28.27,NE,45,1.0,2.0,79,0.00,CLR,,0.00,WeatherDisplay:10.37,2013-08-05 07:10:00,
2013-08-05 03:20:00,62.8,56.2,28.27,NE,47,2.0,2.0,79,0.00,CLR,,0.00,WeatherDisplay:10.37,2013-08-05 07:20:00,
2013-08-05 03:30:00,62.6,56.3,28.27,NE,48,1.0,3.0,80,0.00,CLR,,0.00,WeatherDisplay:10.37,2013-08-05 07:30:00,
2013-08-05 03:40:00,62.2,56.0,28.27,North,354,0.0,2.0,80,0.00,CLR,,0.00,WeatherDisplay:10.37,2013-08-05 07:40:00,
2013-08-05 03:50:00,62.1,55.5,28.27,North,0,0.0,0.0,79,0.00,CLR,,0.00,WeatherDisplay:10.37,2013-08-05 07:50:00,
2013-08-05 04:00:00,61.9,55.3,28.27,North,0,0.0,0.0,79,0.00,CLR,,0.00,WeatherDisplay:10.37,2013-08-05 08:00:00,
2013-08-05 04:10:00,61.7,55.1,28.27,North,0,0.0,0.0,79,0.00,CLR,,0.00,WeatherDisplay:10.37,2013-08-05 08:10:00,
2013-08-05 04:20:00,61.3,55.1,28.27,NNE,12,0.0,0.0,80,0.00,CLR,,0.00,WeatherDisplay:10.37,2013-08-05 08:20:00,
2013-08-05 04:30:00,61.3,55.5,28.27,NNE,22,0.0,0.0,81,0.00,CLR,,0.00,WeatherDisplay:10.37,2013-08-05 08:30:00,
2013-08-05 04:40:00,61.2,55.3,28.27,NNE,22,1.0,1.0,81,0.00,CLR,,0.00,WeatherDisplay:10.37,2013-08-05 08:40:00,
2013-08-05 04:50:00,61.2,55.6,28.24,NNE,22,0.0,0.0,82,0.00,CLR,,0.00,WeatherDisplay:10.37,2013-08-05 08:50:00,
2013-08-05 05:00:00,61.2,56.0,28.24,NNE,22,0.0,1.0,83,0.00,CLR,,0.00,WeatherDisplay:10.37,2013-08-05 09:00:00,
2013-08-05 05:10:00,61.2,56.0,28.24,NNE,22,0.0,2.0,83,0.00,CLR,,0.00,WeatherDisplay:10.37,2013-08-05 09:10:00,
2013-08-05 05:30:00,61.3,56.5,28.24,NNE,16,0.0,2.0,84,0.00,CLR,,0.00,WeatherDisplay:10.37,2013-08-05 09:30:00,
2013-08-05 06:10:00,61.2,56.0,28.24,NNE,29,0.0,0.0,83,0.00,CLR,,0.00,WeatherDisplay:10.37,2013-08-05 10:10:00,
2013-08-05 06:20:00,61.1,55.9,28.24,NNE,26,0.0,1.0,83,0.00,CLR,,0.00,WeatherDisplay:10.37,2013-08-05 10:20:00,
2013-08-05 06:50:00,60.8,55.3,28.24,NNE,22,0.0,0.0,82,0.00,CLR,,0.00,WeatherDisplay:10.37,2013-08-05 10:50:00,
2013-08-05 07:10:00,60.8,55.3,28.24,ENE,59,0.0,0.0,82,0.00,CLR,,0.00,WeatherDisplay:10.37,2013-08-05 11:10:00,
2013-08-05 07:30:00,61.0,55.4,28.24,NNE,29,0.0,0.0,82,0.00,CLR,,0.00,WeatherDisplay:10.37,2013-08-05 11:30:00,
2013-08-05 07:40:00,61.3,56.1,28.24,NE,44,0.0,0.0,83,0.00,CLR,,0.00,WeatherDisplay:10.37,2013-08-05 11:40:00,
2013-08-05 07:50:00,62.1,56.8,28.24,South,179,0.0,0.0,83,0.00,CLR,,0.00,WeatherDisplay:10.37,2013-08-05 11:50:00,
2013-08-05 08:00:00,62.6,57.0,28.24,West,278,0.0,1.0,82,0.00,CLR,,0.00,WeatherDisplay:10.37,2013-08-05 12:00:00,
2013-08-05 08:20:00,64.1,57.4,28.24,North,354,1.0,2.0,79,0.00,CLR,,0.00,WeatherDisplay:10.37,2013-08-05 12:20:00,
2013-08-05 08:30:00,64.8,56.6,28.24,NNE,12,1.0,3.0,75,0.00,CLR,,0.00,WeatherDisplay:10.37,2013-08-05 12:30:00,
2013-08-05 08:40:00,65.5,56.2,28.24,WNW,292,1.0,2.0,72,0.00,CLR,,0.00,WeatherDisplay:10.37,2013-08-05 12:40:00,
2013-08-05 08:50:00,65.8,54.6,28.24,NNE,23,2.0,3.0,67,0.00,CLR,,0.00,WeatherDisplay:10.37,2013-08-05 12:50:00,
2013-08-05 09:00:00,66.5,54.3,28.24,NNE,15,2.0,4.0,65,0.00,CLR,,0.00,WeatherDisplay:10.37,2013-08-05 13:00:00,
2013-08-05 09:10:00,67.1,53.6,28.24,NNE,30,1.0,3.0,62,0.00,CLR,,0.00,WeatherDisplay:10.37,2013-08-05 13:10:00,
2013-08-05 09:20:00,67.6,54.2,28.24,NNE,24,1.0,3.0,62,0.00,CLR,,0.00,WeatherDisplay:10.37,2013-08-05 13:20:00,
2013-08-05 09:30:00,68.6,54.2,28.24,NNE,30,0.0,3.0,60,0.00,CLR,,0.00,WeatherDisplay:10.37,2013-08-05 13:30:00,
2013-08-05 09:40:00,69.4,53.5,28.24,NNE,18,1.0,3.0,57,0.00,CLR,,0.00,WeatherDisplay:10.37,2013-08-05 13:40:00,
2013-08-05 09:50:00,70.7,53.7,28.24,North,355,1.0,3.0,55,0.00,CLR,,0.00,WeatherDisplay:10.37,2013-08-05 13:50:00,
2013-08-05 10:00:00,72.0,52.3,28.24,North,5,0.0,4.0,50,0.00,CLR,,0.00,WeatherDisplay:10.37,2013-08-05 14:00:00,
2013-08-05 10:20:00,73.6,49.1,28.27,NW,311,0.0,2.0,42,0.00,CLR,,0.00,WeatherDisplay:10.37,2013-08-05 14:20:00,
2013-08-05 10:30:00,74.8,50.2,28.27,West,269,2.0,4.0,42,0.00,CLR,,0.00,WeatherDisplay:10.37,2013-08-05 14:30:00,
2013-08-05 10:40:00,75.9,50.5,28.24,SW,216,0.0,3.0,41,0.00,CLR,,0.00,WeatherDisplay:10.37,2013-08-05 14:40:00,
2013-08-05 11:00:00,76.2,50.1,28.27,WSW,237,1.0,3.0,40,0.00,CLR,,0.00,WeatherDisplay:10.37,2013-08-05 15:00:00,
2013-08-05 11:10:00,76.9,50.1,28.27,WSW,248,0.0,2.0,39,0.00,CLR,,0.00,WeatherDisplay:10.37,2013-08-05 15:10:00,
2013-08-05 11:20:00,77.0,48.0,28.27,South,190,3.0,5.0,36,0.00,CLR,,0.00,WeatherDisplay:10.37,2013-08-05 15:20:00,
2013-08-05 11:30:00,77.2,48.9,28.27,SW,222,1.0,5.0,37,0.00,CLR,,0.00,WeatherDisplay:10.37,2013-08-05 15:30:00,
2013-08-05 11:50:00,77.0,48.7,28.27,SW,216,2.0,5.0,37,0.00,CLR,,0.00,WeatherDisplay:10.37,2013-08-05 15:50:00,
2013-08-05 12:00:00,78.4,51.4,28.27,South,184,1.0,4.0,39,0.00,CLR,,0.00,WeatherDisplay:10.37,2013-08-05 16:00:00,
2013-08-05 12:10:00,77.9,47.3,28.24,West,260,1.0,3.0,34,0.00,CLR,,0.00,WeatherDisplay:10.37,2013-08-05 16:10:00,
2013-08-05 12:20:00,76.5,45.2,28.24,SW,231,3.0,5.0,33,0.00,CLR,,0.00,WeatherDisplay:10.37,2013-08-05 16:20:00,
2013-08-05 12:30:00,76.5,47.5,28.24,SW,217,3.0,6.0,36,0.00,CLR,,0.00,WeatherDisplay:10.37,2013-08-05 16:30:00,
2013-08-05 12:40:00,77.4,46.8,28.24,SW,218,2.0,5.0,34,0.00,CLR,,0.00,WeatherDisplay:10.37,2013-08-05 16:40:00,
2013-08-05 12:50:00,77.7,47.1,28.24,WSW,243,2.0,5.0,34,0.00,CLR,,0.00,WeatherDisplay:10.37,2013-08-05 16:50:00,
2013-08-05 13:00:00,78.0,46.6,28.24,SSW,205,3.0,6.0,33,0.00,CLR,,0.00,WeatherDisplay:10.37,2013-08-05 17:00:00,
2013-08-05 13:20:00,78.1,47.4,28.24,WSW,249,2.0,5.0,34,0.00,CLR,,0.00,WeatherDisplay:10.37,2013-08-05 17:20:00,
2013-08-05 13:30:00,77.9,45.7,28.24,SW,220,2.0,5.0,32,0.00,CLR,,0.00,WeatherDisplay:10.37,2013-08-05 17:30:00,
2013-08-05 13:40:00,78.8,47.3,28.24,WSW,244,2.0,5.0,33,0.00,CLR,,0.00,WeatherDisplay:10.37,2013-08-05 17:40:00,
2013-08-05 13:50:00,79.1,45.0,28.24,SSW,208,3.0,8.0,30,0.00,CLR,,0.00,WeatherDisplay:10.37,2013-08-05 17:50:00,
2013-08-05 14:10:00,80.2,46.9,28.24,SSW,193,3.0,8.0,31,0.00,CLR,,0.00,WeatherDisplay:10.37,2013-08-05 18:10:00,
2013-08-05 14:30:00,79.7,45.5,28.24,SW,235,3.0,7.0,30,0.00,CLR,,0.00,WeatherDisplay:10.37,2013-08-05 18:30:00,
2013-08-05 15:00:00,82.0,47.5,28.24,SSW,198,2.0,8.0,30,0.00,CLR,,0.00,WeatherDisplay:10.37,2013-08-05 19:00:00,
2013-08-05 15:10:00,81.6,47.2,28.24,SW,214,6.0,8.0,30,0.00,CLR,,0.00,WeatherDisplay:10.37,2013-08-05 19:10:00,
2013-08-05 15:20:00,81.6,43.4,28.27,SSW,208,5.0,8.0,26,0.00,CLR,,0.00,WeatherDisplay:10.37,2013-08-05 19:20:00,
2013-08-05 15:30:00,82.0,45.7,28.27,SW,215,3.0,10.0,28,0.00,CLR,,0.00,WeatherDisplay:10.37,2013-08-05 19:30:00,
2013-08-05 15:40:00,82.6,46.2,28.27,SSW,210,5.0,10.0,28,0.00,CLR,,0.00,WeatherDisplay:10.37,2013-08-05 19:40:00,
2013-08-05 15:50:00,82.4,46.9,28.27,SW,217,3.0,9.0,29,0.00,CLR,,0.00,WeatherDisplay:10.37,2013-08-05 19:50:00,
2013-08-05 16:00:00,82.6,39.9,28.27,SW,221,6.0,10.0,22,0.00,CLR,,0.00,WeatherDisplay:10.37,2013-08-05 20:00:00,
2013-08-05 16:10:00,82.6,41.0,28.27,SSW,212,6.0,10.0,23,0.00,CLR,,0.00,WeatherDisplay:10.37,2013-08-05 20:10:00,
2013-08-05 16:20:00,83.1,44.7,28.27,SW,223,2.0,8.0,26,0.00,CLR,,0.00,WeatherDisplay:10.37,2013-08-05 20:20:00,
2013-08-05 16:30:00,83.3,43.8,28.27,SW,217,2.0,6.0,25,0.00,CLR,,0.00,WeatherDisplay:10.37,2013-08-05 20:30:00,
2013-08-05 16:50:00,83.8,42.1,28.27,SW,230,3.0,6.0,23,0.00,CLR,,0.00,WeatherDisplay:10.37,2013-08-05 20:50:00,
2013-08-05 17:00:00,84.0,47.4,28.27,SW,214,3.0,6.0,28,0.00,CLR,,0.00,WeatherDisplay:10.37,2013-08-05 21:00:00,
2013-08-05 17:10:00,84.0,44.4,28.27,SW,220,3.0,6.0,25,0.00,CLR,,0.00,WeatherDisplay:10.37,2013-08-05 21:10:00,
2013-08-05 17:20:00,83.4,42.8,28.27,WSW,256,1.0,7.0,24,0.00,CLR,,0.00,WeatherDisplay:10.37,2013-08-05 21:20:00,
2013-08-05 17:30:00,84.0,42.2,28.27,SW,219,2.0,7.0,23,0.00,CLR,,0.00,WeatherDisplay:10.37,2013-08-05 21:30:00,
2013-08-05 17:40:00,83.8,43.2,28.27,SW,228,1.0,4.0,24,0.00,CLR,,0.00,WeatherDisplay:10.37,2013-08-05 21:40:00,
2013-08-05 17:50:00,83.3,41.6,28.27,WSW,245,1.0,2.0,23,0.00,CLR,,0.00,WeatherDisplay:10.37,2013-08-05 21:50:00,
2013-08-05 18:00:00,83.4,41.7,28.27,SSW,201,2.0,4.0,23,0.00,CLR,,0.00,WeatherDisplay:10.37,2013-08-05 22:00:00,
2013-08-05 18:10:00,82.9,39.0,28.27,SW,230,1.0,5.0,21,0.00,CLR,,0.00,WeatherDisplay:10.37,2013-08-05 22:10:00,
2013-08-05 18:20:00,83.1,40.3,28.27,WSW,239,1.0,2.0,22,0.00,CLR,,0.00,WeatherDisplay:10.37,2013-08-05 22:20:00,
2013-08-05 18:30:00,82.8,38.8,28.27,SW,217,1.0,6.0,21,0.00,CLR,,0.00,WeatherDisplay:10.37,2013-08-05 22:30:00,
2013-08-05 18:40:00,83.0,39.0,28.27,WSW,248,0.0,3.0,21,0.00,CLR,,0.00,WeatherDisplay:10.37,2013-08-05 22:40:00,
2013-08-05 18:50:00,81.8,36.8,28.24,West,273,1.0,2.0,20,0.00,CLR,,0.00,WeatherDisplay:10.37,2013-08-05 22:50:00,
2013-08-05 19:00:00,80.6,37.0,28.24,SW,235,0.0,5.0,21,0.00,CLR,,0.00,WeatherDisplay:10.37,2013-08-05 23:00:00,
2013-08-05 19:20:00,81.0,37.4,28.24,SW,230,1.0,2.0,21,0.00,CLR,,0.00,WeatherDisplay:10.37,2013-08-05 23:20:00,
2013-08-05 19:30:00,78.7,40.9,28.24,WSW,239,0.0,0.0,26,0.00,CLR,,0.00,WeatherDisplay:10.37,2013-08-05 23:30:00,
2013-08-05 19:40:00,76.8,43.9,28.24,WSW,248,0.0,0.0,31,0.00,CLR,,0.00,WeatherDisplay:10.37,2013-08-05 23:40:00,
2013-08-05 19:50:00,74.9,43.9,28.24,WSW,248,0.0,0.0,33,0.00,CLR,,0.00,WeatherDisplay:10.37,2013-08-05 23:50:00,
2013-08-05 20:00:00,73.5,43.4,28.24,WSW,248,0.0,0.0,34,0.00,CLR,,0.00,WeatherDisplay:10.37,2013-08-06 00:00:00,
2013-08-05 20:10:00,72.3,43.9,28.24,WSW,248,0.0,0.0,36,0.00,CLR,,0.00,WeatherDisplay:10.37,2013-08-06 00:10:00,
2013-08-05 20:20:00,71.1,43.5,28.24,WSW,248,0.0,0.0,37,0.00,CLR,,0.00,WeatherDisplay:10.37,2013-08-06 00:20:00,
2013-08-05 20:30:00,70.0,45.2,28.24,WSW,248,0.0,0.0,41,0.00,CLR,,0.00,WeatherDisplay:10.37,2013-08-06 00:30:00,
2013-08-05 20:40:00,69.1,45.6,28.21,WSW,248,0.0,0.0,43,0.00,CLR,,0.00,WeatherDisplay:10.37,2013-08-06 00:40:00,
2013-08-05 20:50:00,68.2,46.6,28.24,WSW,248,0.0,0.0,46,0.00,CLR,,0.00,WeatherDisplay:10.37,2013-08-06 00:50:00,
2013-08-05 21:00:00,67.5,45.9,28.24,WSW,248,0.0,0.0,46,0.00,CLR,,0.00,WeatherDisplay:10.37,2013-08-06 01:00:00,
2013-08-05 21:10:00,66.9,46.0,28.21,WSW,248,0.0,0.0,47,0.00,CLR,,0.00,WeatherDisplay:10.37,2013-08-06 01:10:00,
2013-08-05 21:20:00,66.4,47.7,28.21,WSW,248,0.0,0.0,51,0.00,CLR,,0.00,WeatherDisplay:10.37,2013-08-06 01:20:00,
2013-08-05 21:40:00,65.8,47.7,28.21,West,270,0.0,0.0,52,0.00,CLR,,0.00,WeatherDisplay:10.37,2013-08-06 01:40:00,
2013-08-05 21:50:00,65.7,50.0,28.24,WNW,285,0.0,0.0,57,0.00,CLR,,0.00,WeatherDisplay:10.37,2013-08-06 01:50:00,
2013-08-05 22:10:00,65.0,50.3,28.24,NNE,22,0.0,2.0,59,0.00,CLR,,0.00,WeatherDisplay:10.37,2013-08-06 02:10:00,
2013-08-05 22:20:00,64.9,51.6,28.24,NNE,22,0.0,0.0,62,0.00,CLR,,0.00,WeatherDisplay:10.37,2013-08-06 02:20:00,
2013-08-05 22:30:00,64.8,51.4,28.24,NNE,22,1.0,2.0,62,0.00,CLR,,0.00,WeatherDisplay:10.37,2013-08-06 02:30:00,
2013-08-05 22:40:00,64.4,51.1,28.24,NNE,22,0.0,1.0,62,0.00,CLR,,0.00,WeatherDisplay:10.37,2013-08-06 02:40:00,
2013-08-05 23:00:00,64.2,52.2,28.21,ENE,68,0.0,0.0,65,0.00,CLR,,0.00,WeatherDisplay:10.37,2013-08-06 03:00:00,
2013-08-05 23:10:00,64.4,53.6,28.21,ENE,68,1.0,2.0,68,0.00,CLR,,0.00,WeatherDisplay:10.37,2013-08-06 03:10:00,
2013-08-05 23:20:00,64.6,53.0,28.21,ENE,68,0.0,1.0,66,0.00,CLR,,0.00,WeatherDisplay:10.37,2013-08-06 03:20:00,
2013-08-05 23:30:00,64.3,52.7,28.21,WSW,252,0.0,0.0,66,0.00,CLR,,0.00,WeatherDisplay:10.37,2013-08-06 03:30:00,
2013-08-05 23:40:00,64.2,52.6,28.21,SW,225,0.0,0.0,66,0.00,CLR,,0.00,WeatherDisplay:10.37,2013-08-06 03:40:00,
2013-08-05 23:50:00,64.0,54.0,28.21,NNW,330,1.0,2.0,70,0.00,CLR,,0.00,WeatherDisplay:10.37,2013-08-06 03:50:00,